Weather History for KBLH - December, 2012

Change the Weather History Date:

Tuesday, December 4, 2012

  Actual Average Record
Temperature  
Mean Temperature 66 °F -  
Max Temperature 79 °F 67 °F 79 °F (2012)
Min Temperature 53 °F 42 °F 35 °F (1970)
Cooling Degree Days 1    
Growing Degree Days 16 (Base 50)    
Moisture  
Dew Point 45 °F    
Average Humidity 51    
Maximum Humidity 74    
Minimum Humidity 30    
Precipitation  
Precipitation 0.00 in - - ()
Sea Level Pressure  
Sea Level Pressure 30.15 in    
Wind  
Wind Speed 3 mph (NW)    
Max Wind Speed 7 mph    
Max Gust Speed -    
Visibility 10 miles    
Events      
Averages and records for this station are not official NWS values.
T = Trace of Precipitation, MM = Missing Value Source: NWS Daily Summary

Daily Weather History Graph

Daily Weather History Graph

Search for Another Location

Airport or City:

Trip Planner

Search our weather history database for the weather conditions in past years. The results will help you decide how hot, cold, wet, or windy it might be!

Date:

Astronomy

Dec. 04, 2012 Rise Set
Actual Time 6:28 AM PST 4:30 PM PST
Civil Twilight 6:00 AM PST 4:57 PM PST
Nautical Twilight 5:30 AM PST 5:28 PM PST
Astronomical Twilight 4:59 AM PST 5:58 PM PST
Moon 10:10 PM PST 10:34 AM PST
Length of Visible Light 10h 56m
Length of Day
10h 02m
Waning Gibbous, 68% of the Moon is Illuminated
Dec 4
Waning Gibbous
Dec 6
Last Quarter
Dec 13
New
Dec 19
First Quarter
Dec 28
Full

Hourly Weather History & Observations

Time (PST) Temp. Dew Point Humidity Pressure Visibility Wind Dir Wind Speed Gust Speed Precip Events Conditions
12:52 AM 57.9 °F 44.1 °F 60% 30.12 in 10.0 mi West 4.6 mph - N/A   Clear
1:52 AM 57.0 °F 45.0 °F 64% 30.13 in 10.0 mi East 3.5 mph - N/A   Clear
2:52 AM 55.9 °F 44.1 °F 64% 30.14 in 10.0 mi Calm Calm - N/A   Clear
3:52 AM 55.9 °F 45.0 °F 67% 30.15 in 10.0 mi SW 4.6 mph - N/A   Clear
4:52 AM 57.0 °F 45.0 °F 64% 30.16 in 10.0 mi SW 6.9 mph - N/A   Clear
5:52 AM 55.0 °F 45.0 °F 69% 30.19 in 10.0 mi North 3.5 mph - N/A   Clear
6:52 AM 53.1 °F 45.0 °F 74% 30.20 in 10.0 mi Calm Calm - N/A   Clear
7:52 AM 57.9 °F 46.0 °F 65% 30.22 in 10.0 mi Calm Calm - N/A   Clear
8:52 AM 63.0 °F 46.9 °F 56% 30.23 in 10.0 mi WSW 5.8 mph - N/A   Clear
9:52 AM 66.9 °F 46.9 °F 49% 30.23 in 10.0 mi Calm Calm - N/A   Clear
10:52 AM 71.1 °F 46.9 °F 42% 30.20 in 10.0 mi Calm Calm - N/A   Clear
11:52 AM 73.9 °F 46.9 °F 38% 30.18 in 10.0 mi North 3.5 mph - N/A   Clear
12:52 PM 77.0 °F 46.0 °F 33% 30.15 in 10.0 mi Calm Calm - N/A   Clear
1:52 PM 79.0 °F 45.0 °F 30% 30.12 in 10.0 mi North 4.6 mph - N/A   Clear
3:52 PM 75.0 °F 48.0 °F 38% 30.11 in 10.0 mi ENE 3.5 mph - N/A   Clear
4:52 PM 72.0 °F 46.0 °F 40% 30.11 in 10.0 mi NE 3.5 mph - N/A   Clear
5:52 PM 70.0 °F 46.0 °F 42% 30.12 in 10.0 mi West 4.6 mph - N/A   Clear
6:52 PM 69.1 °F 43.0 °F 39% 30.13 in 10.0 mi NW 3.5 mph - N/A   Clear
7:52 PM 68.0 °F 42.1 °F 39% 30.13 in 10.0 mi NNW 4.6 mph - N/A   Clear
8:52 PM 64.0 °F 41.0 °F 43% 30.12 in 10.0 mi NW 6.9 mph - N/A   Clear
9:52 PM 61.0 °F 41.0 °F 48% 30.12 in 10.0 mi North 4.6 mph - N/A   Clear
10:52 PM 60.1 °F 41.0 °F 49% 30.11 in 10.0 mi NNW 5.8 mph - N/A   Clear
11:52 PM 59.0 °F 39.9 °F 49% 30.11 in 10.0 mi WNW 5.8 mph - N/A   Clear